Flag for Colombia Weather past 2 weeks in San Juan de Pasto, Colombia

Now
55 °F

Scattered clouds.


Feels Like: 55 °F
Forecast: 52 / 58 °F
Wind: 5 mph from South

Location: Latacunga Airport

Current Time: Apr 21, 2015 at 9:45:52 AM

Latest Report: Apr 21, 2015 at 9:00 AM


Visibility: N/A

Pressure: 30.45 "Hg

Humidity: 88%

Dew point: 52 °F

Location of San Juan de PastoLocation

Historic Weather in San Juan de Pasto — Graph

°F

San Juan de Pasto temperature yesterday

Maximum temperature yesterday: 68 °F (at 2:00 PM)
Minimum temperature yesterday: 45 °F (at 5:00 AM)
Average temperature yesterday: 57 °F

Past Weeks' High & Low Weather Summary

 TemperatureHumidityPressure
High84 °F (Apr 9, 11:00 AM)100% (Apr 6, 10:00 PM)30.51 "Hg (Apr 6, 10:00 PM)
Low45 °F (Apr 20, 5:00 AM)46% (Apr 19, 1:00 PM)29.83 "Hg (Apr 9, 11:00 AM)
Average56 °F84%30.41 "Hg
* Reported Apr 6 8:00 AM — Apr 21 8:00 AM, San Juan de Pasto, Weather by CustomWeather, © 2015

Note: Actual official high and low records may vary slightly from our data, if they occured in-between our weather recording intervals... More about our weather records

Advertising

San Juan de Pasto weather history for previous 24 hours

 ConditionsComfort  
Time TempWeatherWind HumidityBarometerVisibility
8:00 AM
Tue, Apr 21
54 °FBroken clouds.5 mph88%30.45 "HgN/A
7:00 AM50 °FScattered clouds.1 mph100%30.42 "Hg5 mi
6:00 AM52 °FPassing clouds.3 mph94%30.42 "HgN/A
5:00 AM52 °FPartly cloudy.5 mph100%30.45 "HgN/A
4:00 AM52 °FPassing clouds.7 mph94%30.42 "HgN/A
3:00 AM52 °FPartly cloudy.5 mph100%30.42 "HgN/A
2:00 AM54 °FPartly cloudy.8 mph94%30.42 "HgN/A
1:00 AM54 °FPassing clouds.6 mph94%30.45 "HgN/A
12:00 AM54 °FPassing clouds.5 mph94%30.45 "HgN/A
11:00 PM
Mon, Apr 20
52 °FPartly cloudy.7 mph100%30.42 "HgN/A
10:00 PM52 °FPassing clouds.2 mph100%30.42 "Hg4 mi
9:00 PM54 °FRain. Passing clouds.8 mph100%30.39 "Hg4 mi
8:00 PM59 °FPassing clouds.7 mph82%30.33 "HgN/A
7:00 PM59 °FPartly cloudy.2 mph82%30.33 "HgN/A
6:00 PM61 °FBroken clouds.3 mph77%30.30 "HgN/A
5:00 PM61 °FPartly sunny.3 mph72%30.27 "HgN/A
4:00 PM66 °FThunderstorms. Broken clouds.12 mph56%30.27 "HgN/A
3:00 PM68 °FThunderstorms. Scattered clouds.15 mph49%30.30 "HgN/A
2:00 PM68 °FScattered clouds.17 mph49%30.33 "HgN/A
1:00 PM66 °FBroken clouds.12 mph52%30.39 "HgN/A
11:00 AM61 °FScattered clouds.9 mph68%30.45 "HgN/A
10:00 AM59 °FScattered clouds.7 mph68%30.45 "HgN/A
9:00 AM57 °FPassing clouds.5 mph77%30.45 "HgN/A
Weather by CustomWeather, © 2015

See weather overviewHow to use our weather pages